Time,TemperatureF,DewpointF,PressureIn,WindDirection,WindDirectionDegrees,WindSpeedMPH,WindSpeedGustMPH,Humidity,HourlyPrecipIn,Conditions,Clouds,dailyrainin,SoftwareType,DateUTC
2013-12-25 00:05:00,21.2,15.0,30.35,SE,146,2.0,12.0,76,0.00,,,0.00,weatherlink.com 1.10,2013-12-25 05:05:00,
2013-12-25 00:20:00,21.4,15.0,30.35,SSW,195,2.0,11.0,76,0.00,,,0.00,weatherlink.com 1.10,2013-12-25 05:20:00,
2013-12-25 00:35:00,21.5,15.0,30.35,SSE,155,8.0,11.0,76,0.00,,,0.00,weatherlink.com 1.10,2013-12-25 05:35:00,
2013-12-25 00:50:00,21.7,15.0,30.35,South,186,7.0,11.0,76,0.00,,,0.00,weatherlink.com 1.10,2013-12-25 05:50:00,
2013-12-25 01:05:00,21.7,16.0,30.34,South,175,9.0,12.0,77,0.00,,,0.00,weatherlink.com 1.10,2013-12-25 06:05:00,
2013-12-25 01:20:00,21.7,16.0,30.34,South,180,5.0,15.0,78,0.00,,,0.00,weatherlink.com 1.10,2013-12-25 06:20:00,
2013-12-25 01:35:00,21.7,16.0,30.33,SSW,197,4.0,14.0,78,0.00,,,0.00,weatherlink.com 1.10,2013-12-25 06:35:00,
2013-12-25 01:50:00,21.7,16.0,30.32,SSW,202,7.0,11.0,79,0.00,,,0.00,weatherlink.com 1.10,2013-12-25 06:50:00,
2013-12-25 02:05:00,21.8,16.0,30.32,South,178,4.0,11.0,79,0.00,,,0.00,weatherlink.com 1.10,2013-12-25 07:05:00,
2013-12-25 02:20:00,22.0,16.0,30.32,South,186,5.0,11.0,79,0.00,,,0.00,weatherlink.com 1.10,2013-12-25 07:20:00,
2013-12-25 02:35:00,22.2,17.0,30.32,SW,215,9.0,14.0,79,0.00,,,0.00,weatherlink.com 1.10,2013-12-25 07:35:00,
2013-12-25 02:51:00,22.3,17.0,30.32,SSW,208,7.0,12.0,79,0.00,,,0.00,weatherlink.com 1.10,2013-12-25 07:51:00,
2013-12-25 03:06:00,22.4,17.0,30.32,South,191,5.0,12.0,79,0.00,,,0.00,weatherlink.com 1.10,2013-12-25 08:06:00,
2013-12-25 03:21:00,22.4,17.0,30.32,SSW,192,5.0,14.0,79,0.00,,,0.00,weatherlink.com 1.10,2013-12-25 08:21:00,
2013-12-25 03:36:00,22.5,17.0,30.31,SSW,209,6.0,12.0,80,0.00,,,0.00,weatherlink.com 1.10,2013-12-25 08:36:00,
2013-12-25 03:51:00,22.5,18.0,30.30,South,186,5.0,13.0,81,0.00,,,0.00,weatherlink.com 1.10,2013-12-25 08:51:00,
2013-12-25 04:06:00,22.6,18.0,30.30,South,184,6.0,11.0,81,0.00,,,0.00,weatherlink.com 1.10,2013-12-25 09:06:00,
2013-12-25 04:21:00,22.8,18.0,30.30,South,184,7.0,11.0,81,0.00,,,0.00,weatherlink.com 1.10,2013-12-25 09:21:00,
2013-12-25 04:36:00,22.9,18.0,30.29,South,182,8.0,13.0,81,0.00,,,0.00,weatherlink.com 1.10,2013-12-25 09:36:00,
2013-12-25 04:51:00,22.9,18.0,30.28,South,175,5.0,11.0,81,0.00,,,0.00,weatherlink.com 1.10,2013-12-25 09:51:00,
2013-12-25 05:06:00,23.0,18.0,30.28,South,191,4.0,12.0,81,0.00,,,0.00,weatherlink.com 1.10,2013-12-25 10:06:00,
2013-12-25 05:21:00,23.1,18.0,30.28,SSW,196,8.0,12.0,81,0.00,,,0.00,weatherlink.com 1.10,2013-12-25 10:21:00,
2013-12-25 05:36:00,23.1,18.0,30.28,SSW,196,7.0,11.0,82,0.00,,,0.00,weatherlink.com 1.10,2013-12-25 10:36:00,
2013-12-25 05:51:00,23.1,18.0,30.27,SSW,202,4.0,10.0,82,0.00,,,0.00,weatherlink.com 1.10,2013-12-25 10:51:00,
2013-12-25 06:06:00,23.2,19.0,30.27,SW,218,6.0,8.0,83,0.00,,,0.00,weatherlink.com 1.10,2013-12-25 11:06:00,
2013-12-25 06:21:00,23.3,19.0,30.28,SSW,197,7.0,8.0,83,0.00,,,0.00,weatherlink.com 1.10,2013-12-25 11:21:00,
2013-12-25 06:36:00,23.4,19.0,30.28,SSW,202,5.0,9.0,84,0.00,,,0.00,weatherlink.com 1.10,2013-12-25 11:36:00,
2013-12-25 06:51:00,23.5,19.0,30.28,SSW,194,6.0,8.0,84,0.00,,,0.00,weatherlink.com 1.10,2013-12-25 11:51:00,
2013-12-25 07:06:00,23.6,20.0,30.27,SW,217,6.0,9.0,84,0.00,,,0.00,weatherlink.com 1.10,2013-12-25 12:06:00,
2013-12-25 07:21:00,23.7,20.0,30.27,SW,230,6.0,8.0,84,0.00,,,0.00,weatherlink.com 1.10,2013-12-25 12:21:00,
2013-12-25 07:36:00,23.8,20.0,30.27,SW,221,7.0,8.0,84,0.00,,,0.00,weatherlink.com 1.10,2013-12-25 12:36:00,
2013-12-25 07:51:00,24.0,20.0,30.27,SSW,196,4.0,9.0,85,0.00,,,0.00,weatherlink.com 1.10,2013-12-25 12:51:00,
2013-12-25 08:06:00,24.1,20.0,30.27,SSW,209,4.0,8.0,85,0.00,,,0.00,weatherlink.com 1.10,2013-12-25 13:06:00,
2013-12-25 08:21:00,24.3,21.0,30.27,SW,219,5.0,8.0,86,0.00,,,0.00,weatherlink.com 1.10,2013-12-25 13:21:00,
2013-12-25 08:36:00,24.5,21.0,30.27,SW,216,5.0,9.0,87,0.00,,,0.00,weatherlink.com 1.10,2013-12-25 13:36:00,
2013-12-25 08:51:00,24.7,21.0,30.27,SW,214,5.0,9.0,87,0.00,,,0.00,weatherlink.com 1.10,2013-12-25 13:51:00,
2013-12-25 09:06:00,24.8,22.0,30.27,SW,224,3.0,11.0,87,0.00,,,0.00,weatherlink.com 1.10,2013-12-25 14:06:00,
2013-12-25 09:21:00,24.8,22.0,30.28,SW,217,6.0,9.0,88,0.00,,,0.00,weatherlink.com 1.10,2013-12-25 14:21:00,
2013-12-25 09:36:00,25.0,22.0,30.28,SSW,201,4.0,9.0,89,0.00,,,0.00,weatherlink.com 1.10,2013-12-25 14:36:00,
2013-12-25 09:51:00,25.1,22.0,30.28,WSW,237,6.0,9.0,89,0.00,,,0.00,weatherlink.com 1.10,2013-12-25 14:51:00,
2013-12-25 10:06:00,25.3,23.0,30.28,SW,236,5.0,10.0,90,0.00,,,0.00,weatherlink.com 1.10,2013-12-25 15:06:00,
2013-12-25 10:21:00,25.5,23.0,30.28,SW,214,6.0,10.0,90,0.00,,,0.00,weatherlink.com 1.10,2013-12-25 15:21:00,
2013-12-25 10:36:00,25.8,23.0,30.28,SSW,209,7.0,11.0,90,0.00,,,0.00,weatherlink.com 1.10,2013-12-25 15:36:00,
2013-12-25 10:51:00,26.2,24.0,30.28,SW,217,8.0,11.0,90,0.00,,,0.00,weatherlink.com 1.10,2013-12-25 15:51:00,
2013-12-25 11:06:00,26.5,24.0,30.28,SW,229,7.0,9.0,90,0.00,,,0.00,weatherlink.com 1.10,2013-12-25 16:06:00,
2013-12-25 11:21:00,26.7,25.0,30.28,SW,225,6.0,10.0,91,0.00,,,0.00,weatherlink.com 1.10,2013-12-25 16:21:00,
2013-12-25 11:36:00,27.1,25.0,30.27,WSW,242,5.0,9.0,91,0.00,,,0.00,weatherlink.com 1.10,2013-12-25 16:36:00,
2013-12-25 11:51:00,27.3,25.0,30.26,SW,217,6.0,11.0,91,0.00,,,0.00,weatherlink.com 1.10,2013-12-25 16:51:00,
2013-12-25 12:06:00,27.6,25.0,30.25,SW,232,8.0,12.0,91,0.00,,,0.00,weatherlink.com 1.10,2013-12-25 17:06:00,
2013-12-25 12:21:00,27.7,26.0,30.25,SW,231,5.0,10.0,92,0.00,,,0.00,weatherlink.com 1.10,2013-12-25 17:21:00,
2013-12-25 12:36:00,27.9,26.0,30.24,WSW,249,9.0,12.0,92,0.00,,,0.00,weatherlink.com 1.10,2013-12-25 17:36:00,
2013-12-25 12:51:00,28.3,26.0,30.24,WSW,251,5.0,9.0,92,0.00,,,0.00,weatherlink.com 1.10,2013-12-25 17:51:00,
2013-12-25 13:06:00,28.7,27.0,30.23,WSW,242,6.0,10.0,92,0.00,,,0.00,weatherlink.com 1.10,2013-12-25 18:06:00,
2013-12-25 13:22:00,28.9,27.0,30.22,SW,222,11.0,12.0,93,0.00,,,0.00,weatherlink.com 1.10,2013-12-25 18:22:00,
2013-12-25 13:37:00,29.2,28.0,30.21,SW,231,8.0,13.0,93,0.00,,,0.00,weatherlink.com 1.10,2013-12-25 18:37:00,
2013-12-25 13:52:00,29.4,27.0,30.20,SW,232,7.0,10.0,92,0.00,,,0.00,weatherlink.com 1.10,2013-12-25 18:52:00,
2013-12-25 14:07:00,29.8,28.0,30.20,WSW,248,8.0,12.0,92,0.00,,,0.00,weatherlink.com 1.10,2013-12-25 19:07:00,
2013-12-25 14:22:00,30.0,28.0,30.20,SW,222,6.0,10.0,92,0.00,,,0.00,weatherlink.com 1.10,2013-12-25 19:22:00,
2013-12-25 14:37:00,30.3,28.0,30.19,WSW,238,7.0,11.0,92,0.00,,,0.00,weatherlink.com 1.10,2013-12-25 19:37:00,
2013-12-25 14:52:00,30.5,29.0,30.18,SW,236,5.0,11.0,92,0.00,,,0.00,weatherlink.com 1.10,2013-12-25 19:52:00,
2013-12-25 15:07:00,30.7,29.0,30.18,WSW,245,8.0,13.0,92,0.00,,,0.00,weatherlink.com 1.10,2013-12-25 20:07:00,
2013-12-25 15:22:00,30.8,29.0,30.18,WSW,240,6.0,14.0,91,0.00,,,0.00,weatherlink.com 1.10,2013-12-25 20:22:00,
2013-12-25 15:37:00,30.8,29.0,30.18,WSW,252,12.0,13.0,91,0.00,,,0.00,weatherlink.com 1.10,2013-12-25 20:37:00,
2013-12-25 15:52:00,30.8,29.0,30.18,WSW,245,5.0,13.0,91,0.00,,,0.00,weatherlink.com 1.10,2013-12-25 20:52:00,
2013-12-25 16:07:00,31.0,29.0,30.19,WSW,257,6.0,12.0,91,0.00,,,0.00,weatherlink.com 1.10,2013-12-25 21:07:00,
2013-12-25 16:22:00,31.0,29.0,30.19,WSW,251,8.0,14.0,91,0.00,,,0.00,weatherlink.com 1.10,2013-12-25 21:22:00,
2013-12-25 16:37:00,31.2,29.0,30.19,West,271,4.0,13.0,91,0.00,,,0.00,weatherlink.com 1.10,2013-12-25 21:37:00,
2013-12-25 16:52:00,31.2,29.0,30.19,West,271,8.0,11.0,91,0.00,,,0.00,weatherlink.com 1.10,2013-12-25 21:52:00,
2013-12-25 17:07:00,31.3,29.0,30.18,WSW,247,8.0,10.0,91,0.00,,,0.00,weatherlink.com 1.10,2013-12-25 22:07:00,
2013-12-25 17:22:00,31.4,29.0,30.18,WSW,254,9.0,15.0,91,0.00,,,0.00,weatherlink.com 1.10,2013-12-25 22:22:00,
2013-12-25 17:37:00,31.5,29.0,30.18,WSW,252,9.0,15.0,91,0.00,,,0.00,weatherlink.com 1.10,2013-12-25 22:37:00,
2013-12-25 17:52:00,31.5,29.0,30.18,WSW,254,9.0,13.0,91,0.00,,,0.00,weatherlink.com 1.10,2013-12-25 22:52:00,
2013-12-25 18:07:00,31.5,29.0,30.19,WSW,253,6.0,13.0,91,0.00,,,0.00,weatherlink.com 1.10,2013-12-25 23:07:00,
2013-12-25 18:22:00,31.5,29.0,30.19,WSW,258,6.0,10.0,91,0.00,,,0.00,weatherlink.com 1.10,2013-12-25 23:22:00,
2013-12-25 18:37:00,31.4,29.0,30.19,West,260,5.0,12.0,91,0.00,,,0.00,weatherlink.com 1.10,2013-12-25 23:37:00,
2013-12-25 18:52:00,31.5,29.0,30.20,West,266,9.0,15.0,91,0.00,,,0.00,weatherlink.com 1.10,2013-12-25 23:52:00,
2013-12-25 19:07:00,31.5,29.0,30.20,WNW,291,11.0,20.0,90,0.00,,,0.00,weatherlink.com 1.10,2013-12-26 00:07:00,
2013-12-25 19:22:00,31.4,29.0,30.20,WSW,258,8.0,16.0,90,0.00,,,0.00,weatherlink.com 1.10,2013-12-26 00:22:00,
2013-12-25 19:37:00,31.3,29.0,30.20,WNW,286,8.0,15.0,90,0.00,,,0.00,weatherlink.com 1.10,2013-12-26 00:37:00,
2013-12-25 19:52:00,31.3,29.0,30.20,WSW,257,9.0,13.0,90,0.00,,,0.00,weatherlink.com 1.10,2013-12-26 00:52:00,
2013-12-25 20:07:00,31.2,29.0,30.20,WNW,287,8.0,11.0,90,0.00,,,0.00,weatherlink.com 1.10,2013-12-26 01:07:00,
2013-12-25 20:22:00,31.2,29.0,30.20,West,277,6.0,9.0,90,0.00,,,0.00,weatherlink.com 1.10,2013-12-26 01:22:00,
2013-12-25 20:37:00,31.1,29.0,30.20,West,269,4.0,8.0,90,0.00,,,0.00,weatherlink.com 1.10,2013-12-26 01:37:00,
2013-12-25 20:52:00,31.1,29.0,30.20,West,263,4.0,8.0,90,0.00,,,0.00,weatherlink.com 1.10,2013-12-26 01:52:00,
2013-12-25 21:07:00,31.2,29.0,30.21,West,261,3.0,9.0,90,0.00,,,0.00,weatherlink.com 1.10,2013-12-26 02:07:00,
2013-12-25 21:22:00,31.3,29.0,30.21,West,259,7.0,12.0,90,0.00,,,0.00,weatherlink.com 1.10,2013-12-26 02:22:00,
2013-12-25 21:37:00,31.3,29.0,30.21,West,271,9.0,11.0,90,0.00,,,0.00,weatherlink.com 1.10,2013-12-26 02:37:00,
2013-12-25 21:52:00,31.6,29.0,30.21,WNW,291,7.0,13.0,90,0.00,,,0.00,weatherlink.com 1.10,2013-12-26 02:52:00,
2013-12-25 22:07:00,31.7,29.0,30.21,West,266,7.0,12.0,90,0.00,,,0.00,weatherlink.com 1.10,2013-12-26 03:07:00,
2013-12-25 22:22:00,31.7,29.0,30.21,West,270,5.0,14.0,89,0.00,,,0.00,weatherlink.com 1.10,2013-12-26 03:22:00,
2013-12-25 22:37:00,31.7,29.0,30.21,West,275,8.0,12.0,89,0.00,,,0.00,weatherlink.com 1.10,2013-12-26 03:37:00,
2013-12-25 22:52:00,31.6,29.0,30.21,WNW,284,10.0,13.0,89,0.00,,,0.00,weatherlink.com 1.10,2013-12-26 03:52:00,
2013-12-25 23:07:00,31.4,29.0,30.21,West,276,7.0,11.0,90,0.00,,,0.00,weatherlink.com 1.10,2013-12-26 04:07:00,
2013-12-25 23:22:00,31.4,29.0,30.22,WSW,257,8.0,10.0,90,0.00,,,0.00,weatherlink.com 1.10,2013-12-26 04:22:00,
2013-12-25 23:37:00,31.4,29.0,30.22,West,276,6.0,10.0,90,0.00,,,0.00,weatherlink.com 1.10,2013-12-26 04:37:00,
2013-12-25 23:52:00,31.3,29.0,30.21,WSW,257,6.0,11.0,90,0.00,,,0.00,weatherlink.com 1.10,2013-12-26 04:52:00,